| time (UTC) | temp C | wind direction | speed KPH | gust KPH | rain 1hr cm | rain 24hr cm | rain mn cm | humidity % | barometer mb |
| 20260503055009 | 11 | 268 | 8.0 | 20.9 | 0.00 | 0.00 | 0.00 | 42 | 1021.4 |
| 20260503054505 | 11 | 278 | 9.7 | 24.1 | 0.00 | 0.00 | 0.00 | 41 | 1021.2 |
| 20260503054008 | 11 | 275 | 9.7 | 24.1 | 0.00 | 0.00 | 0.00 | 41 | 1021.4 |
| 20260503053506 | 11 | 273 | 9.7 | 17.7 | 0.00 | 0.00 | 0.00 | 43 | 1021.4 |
| 20260503053008 | 11 | 258 | 8.0 | 17.7 | 0.00 | 0.00 | 0.00 | 42 | 1021.2 |
| 20260503052506 | 11 | 257 | 8.0 | 20.9 | 0.00 | 0.00 | 0.00 | 43 | 1021.3 |
| 20260503052009 | 11 | 264 | 8.0 | 20.9 | 0.00 | 0.00 | 0.00 | 41 | 1021.3 |
| 20260503051505 | 11 | 258 | 9.7 | 22.5 | 0.00 | 0.00 | 0.00 | 42 | 1021.4 |
| 20260503051010 | 10 | 268 | 11.3 | 24.1 | 0.00 | 0.00 | 0.00 | 41 | 1021.6 |
| 20260503050505 | 10 | 273 | 9.7 | 24.1 | 0.00 | 0.00 | 0.00 | 42 | 1021.5 |
| 20260503050009 | 10 | 273 | 11.3 | 25.7 | 0.00 | 0.00 | 0.00 | 44 | 1021.5 |
| 20260503045506 | 10 | 274 | 11.3 | 25.7 | 0.00 | 0.00 | 0.00 | 42 | 1021.6 |
| 20260503045009 | 10 | 271 | 8.0 | 24.1 | 0.00 | 0.00 | 0.00 | 42 | 1021.6 |
| 20260503044505 | 10 | 267 | 8.0 | 24.1 | 0.00 | 0.00 | 0.00 | 44 | 1021.7 |
| 20260503044009 | 10 | 257 | 6.4 | 12.9 | 0.00 | 0.00 | 0.00 | 44 | 1021.8 |
| 20260503043506 | 10 | 254 | 6.4 | 14.5 | 0.00 | 0.00 | 0.00 | 43 | 1021.8 |
| 20260503043009 | 10 | 233 | 8.0 | 17.7 | 0.00 | 0.00 | 0.00 | 42 | 1021.8 |
| 20260503042505 | 10 | 234 | 8.0 | 17.7 | 0.00 | 0.00 | 0.00 | 44 | 1021.9 |
| 20260503042009 | 10 | 245 | 8.0 | 17.7 | 0.00 | 0.00 | 0.00 | 44 | 1021.8 |
| 20260503041506 | 10 | 243 | 6.4 | 14.5 | 0.00 | 0.00 | 0.00 | 43 | 1022.0 |
| 20260503041009 | 10 | 241 | 8.0 | 17.7 | 0.00 | 0.00 | 0.00 | 44 | 1021.9 |
| 20260503040505 | 10 | 238 | 8.0 | 17.7 | 0.00 | 0.00 | 0.00 | 44 | 1022.0 |
| 20260503040009 | 10 | 249 | 6.4 | 17.7 | 0.00 | 0.00 | 0.00 | 45 | 1022.1 |
| 20260503035506 | 9 | 252 | 8.0 | 20.9 | 0.00 | 0.00 | 0.00 | 48 | 1022.2 |
| 20260503035009 | 9 | 249 | 8.0 | 20.9 | 0.00 | 0.00 | 0.00 | 48 | 1022.0 |
| 20260503034505 | 9 | 258 | 6.4 | 11.3 | 0.00 | 0.00 | 0.00 | 51 | 1022.0 |
| 20260503034008 | 8 | 258 | 4.8 | 9.7 | 0.00 | 0.00 | 0.00 | 54 | 1022.0 |
| 20260503033505 | 8 | 240 | 4.8 | 11.3 | 0.00 | 0.00 | 0.00 | 52 | 1022.0 |
| 20260503033010 | 8 | 247 | 6.4 | 14.5 | 0.00 | 0.00 | 0.00 | 52 | 1022.0 |
| 20260503032505 | 8 | 255 | 4.8 | 14.5 | 0.00 | 0.00 | 0.00 | 52 | 1022.0 |
| 20260503032008 | 7 | 242 | 4.8 | 14.5 | 0.00 | 0.00 | 0.00 | 53 | 1022.0 |
| 20260503031505 | 7 | 237 | 4.8 | 14.5 | 0.00 | 0.00 | 0.00 | 55 | 1022.0 |
| 20260503031009 | 7 | 257 | 3.2 | 11.3 | 0.00 | 0.00 | 0.00 | 55 | 1022.0 |
| 20260503030505 | 7 | 269 | 4.8 | 11.3 | 0.00 | 0.00 | 0.00 | 59 | 1022.0 |
| 20260503030009 | 6 | 270 | 3.2 | 6.4 | 0.00 | 0.00 | 0.00 | 58 | 1022.0 |
| 20260503025506 | 6 | 275 | 4.8 | 9.7 | 0.00 | 0.00 | 0.00 | 59 | 1022.0 |
| 20260503025008 | 6 | 277 | 4.8 | 9.7 | 0.00 | 0.00 | 0.00 | 60 | 1022.0 |
| 20260503024505 | 6 | 279 | 4.8 | 9.7 | 0.00 | 0.00 | 0.00 | 60 | 1021.8 |
| 20260503024009 | 5 | 272 | 4.8 | 9.7 | 0.00 | 0.00 | 0.00 | 60 | 1021.9 |
| 20260503023506 | 5 | 265 | 3.2 | 6.4 | 0.00 | 0.00 | 0.00 | 62 | 1021.8 |
| 20260503023009 | 5 | 268 | 3.2 | 6.4 | 0.00 | 0.00 | 0.00 | 61 | 1021.7 |
| 20260503022505 | 4 | 297 | 1.6 | 3.2 | 0.00 | 0.00 | 0.00 | 64 | 1021.9 |
| 20260503022009 | 3 | 358 | 0.0 | 3.2 | 0.00 | 0.00 | 0.00 | 67 | 1021.7 |
| 20260503021505 | 3 | 1 | 0.0 | 3.2 | 0.00 | 0.00 | 0.00 | 71 | 1021.8 |
| 20260503021008 | 3 | 0 | 0.0 | 0.0 | 0.00 | 0.00 | 0.00 | 69 | 1021.6 |
| 20260503020505 | 4 | 0 | 0.0 | 0.0 | 0.00 | 0.00 | 0.00 | 67 | 1021.6 |
| 20260503020009 | 4 | 0 | 0.0 | 0.0 | 0.00 | 0.00 | 0.00 | 69 | 1021.7 |
| 20260503015506 | 3 | 0 | 0.0 | 0.0 | 0.00 | 0.00 | 0.00 | 72 | 1021.7 |
| 20260503015009 | 3 | 0 | 0.0 | 0.0 | 0.00 | 0.00 | 0.00 | 73 | 1021.7 |
| 20260503014506 | 2 | 0 | 0.0 | 0.0 | 0.00 | 0.00 | 0.00 | 74 | 1021.5 |
| 20260503014008 | 2 | 0 | 0.0 | 0.0 | 0.00 | 0.00 | 0.00 | 74 | 1021.5 |
| 20260503013505 | 1 | 0 | 0.0 | 0.0 | 0.00 | 0.00 | 0.00 | 80 | 1021.5 |
| 20260503013009 | 1 | 0 | 0.0 | 0.0 | 0.00 | 0.00 | 0.00 | 82 | 1021.5 |
| 20260503012505 | 0 | 0 | 0.0 | 0.0 | 0.00 | 0.00 | 0.00 | 81 | 1021.5 |
| 20260503012009 | 0 | 0 | 0.0 | 0.0 | 0.00 | 0.00 | 0.00 | 83 | 1021.4 |
| 20260503011506 | 0 | 0 | 0.0 | 0.0 | 0.00 | 0.00 | 0.00 | 87 | 1021.4 |
| 20260503011009 | -1 | 0 | 0.0 | 0.0 | 0.00 | 0.00 | 0.00 | 87 | 1021.5 |
| 20260503010505 | -1 | 1 | 0.0 | 3.2 | 0.00 | 0.00 | 0.00 | 88 | 1021.5 |
| 20260503010010 | -1 | 1 | 0.0 | 3.2 | 0.00 | 0.00 | 0.00 | 89 | 1021.4 |
| 20260503005505 | -1 | 0 | 0.0 | 0.0 | 0.00 | 0.00 | 0.00 | 89 | 1021.3 |
| 20260503005008 | -2 | 0 | 0.0 | 0.0 | 0.00 | 0.00 | 0.00 | 90 | 1021.3 |
| 20260503004506 | -2 | 0 | 0.0 | 0.0 | 0.00 | 0.00 | 0.00 | 90 | 1021.3 |
| 20260503004008 | -2 | 0 | 0.0 | 0.0 | 0.00 | 0.00 | 0.00 | 91 | 1021.2 |
| 20260503003506 | -2 | 0 | 0.0 | 0.0 | 0.00 | 0.00 | 0.00 | 91 | 1021.2 |
| 20260503003008 | -2 | 0 | 0.0 | 0.0 | 0.00 | 0.00 | 0.00 | 91 | 1021.1 |
| 20260503002506 | -2 | 0 | 0.0 | 0.0 | 0.00 | 0.00 | 0.00 | 91 | 1021.0 |
| 20260503002008 | -2 | 0 | 0.0 | 0.0 | 0.00 | 0.00 | 0.00 | 91 | 1020.8 |
| 20260503001506 | -2 | 0 | 0.0 | 0.0 | 0.00 | 0.00 | 0.00 | 91 | 1020.8 |
| 20260503001009 | -2 | 0 | 0.0 | 0.0 | 0.00 | 0.00 | 0.00 | 91 | 1020.9 |
| 20260503000506 | -2 | 0 | 0.0 | 0.0 | 0.00 | 0.00 | 0.00 | 91 | 1020.8 |
| 20260503000009 | -2 | 0 | 0.0 | 0.0 | 0.00 | 0.00 | 0.00 | 91 | 1020.8 |
| 20260502235505 | -2 | 0 | 0.0 | 0.0 | 0.00 | 0.00 | 0.00 | 91 | 1020.7 |
| 20260502235008 | -2 | 0 | 0.0 | 0.0 | 0.00 | 0.00 | 0.00 | 91 | 1020.8 |
| 20260502234505 | -2 | 0 | 0.0 | 0.0 | 0.00 | 0.00 | 0.00 | 91 | 1020.7 |
| 20260502234009 | -2 | 0 | 0.0 | 0.0 | 0.00 | 0.00 | 0.00 | 90 | 1020.8 |
| 20260502233506 | -2 | 0 | 0.0 | 0.0 | 0.00 | 0.00 | 0.00 | 90 | 1020.8 |
| 20260502233008 | -2 | 0 | 0.0 | 0.0 | 0.00 | 0.00 | 0.00 | 90 | 1020.8 |
| 20260502232506 | -2 | 0 | 0.0 | 0.0 | 0.00 | 0.00 | 0.00 | 90 | 1020.6 |
| 20260502232009 | -2 | 0 | 0.0 | 0.0 | 0.00 | 0.00 | 0.00 | 90 | 1020.7 |
| 20260502231506 | -2 | 0 | 0.0 | 0.0 | 0.00 | 0.00 | 0.00 | 90 | 1020.6 |
| 20260502231008 | -2 | 0 | 0.0 | 0.0 | 0.00 | 0.00 | 0.00 | 90 | 1020.6 |
| 20260502230505 | -2 | 0 | 0.0 | 0.0 | 0.00 | 0.00 | 0.00 | 90 | 1020.7 |
| 20260502230009 | -2 | 0 | 0.0 | 0.0 | 0.00 | 0.00 | 0.00 | 90 | 1020.6 |
| 20260502225505 | -2 | 0 | 0.0 | 0.0 | 0.00 | 0.00 | 0.00 | 90 | 1020.8 |
| 20260502225009 | -2 | 0 | 0.0 | 0.0 | 0.00 | 0.00 | 0.00 | 90 | 1020.7 |
| 20260502224506 | -2 | 0 | 0.0 | 0.0 | 0.00 | 0.00 | 0.00 | 90 | 1020.7 |
| 20260502224009 | -1 | 0 | 0.0 | 0.0 | 0.00 | 0.00 | 0.00 | 89 | 1020.8 |
| 20260502223505 | -1 | 0 | 0.0 | 0.0 | 0.00 | 0.00 | 0.00 | 89 | 1020.8 |
| 20260502223009 | -1 | 0 | 0.0 | 0.0 | 0.00 | 0.00 | 0.00 | 89 | 1020.8 |
| 20260502222505 | -1 | 0 | 0.0 | 0.0 | 0.00 | 0.00 | 0.00 | 89 | 1020.7 |
| 20260502222009 | -1 | 0 | 0.0 | 0.0 | 0.00 | 0.00 | 0.00 | 89 | 1020.7 |
| 20260502221505 | -1 | 0 | 0.0 | 0.0 | 0.00 | 0.00 | 0.00 | 89 | 1020.6 |
| 20260502221009 | -1 | 0 | 0.0 | 0.0 | 0.00 | 0.00 | 0.00 | 89 | 1020.6 |
| 20260502220505 | -1 | 1 | 0.0 | 3.2 | 0.00 | 0.00 | 0.00 | 89 | 1020.7 |
| 20260502220009 | -1 | 1 | 0.0 | 3.2 | 0.00 | 0.00 | 0.00 | 89 | 1020.5 |
| 20260502215506 | -1 | 1 | 0.0 | 3.2 | 0.00 | 0.00 | 0.00 | 89 | 1020.8 |
| 20260502215008 | -1 | 0 | 0.0 | 0.0 | 0.00 | 0.00 | 0.00 | 88 | 1020.8 |
| 20260502214506 | -1 | 0 | 0.0 | 0.0 | 0.00 | 0.00 | 0.00 | 88 | 1020.6 |
| 20260502214009 | -1 | 1 | 0.0 | 3.2 | 0.00 | 0.00 | 0.00 | 88 | 1020.6 |
| 20260502213506 | -1 | 1 | 0.0 | 3.2 | 0.00 | 0.00 | 0.00 | 88 | 1020.7 |
| 20260502213009 | -1 | 1 | 0.0 | 3.2 | 0.00 | 0.00 | 0.00 | 88 | 1020.6 |
| 20260502212505 | -1 | 1 | 0.0 | 3.2 | 0.00 | 0.00 | 0.00 | 89 | 1020.5 |
| 20260502212008 | 0 | 1 | 0.0 | 3.2 | 0.00 | 0.00 | 0.00 | 89 | 1020.6 |
| 20260502211505 | 0 | 1 | 0.0 | 3.2 | 0.00 | 0.00 | 0.00 | 88 | 1020.5 |
| 20260502211008 | 0 | 1 | 0.0 | 3.2 | 0.00 | 0.00 | 0.00 | 88 | 1020.6 |
| 20260502210506 | -1 | 0 | 0.0 | 0.0 | 0.00 | 0.00 | 0.00 | 87 | 1020.6 |
| 20260502210009 | 0 | 0 | 0.0 | 0.0 | 0.00 | 0.00 | 0.00 | 87 | 1020.6 |
| 20260502205507 | 0 | 0 | 0.0 | 0.0 | 0.00 | 0.00 | 0.00 | 87 | 1020.5 |
| 20260502205009 | 0 | 0 | 0.0 | 0.0 | 0.00 | 0.00 | 0.00 | 86 | 1020.5 |
| 20260502204506 | 0 | 0 | 0.0 | 0.0 | 0.00 | 0.00 | 0.00 | 86 | 1020.6 |
| 20260502204009 | 0 | 0 | 0.0 | 0.0 | 0.00 | 0.00 | 0.00 | 85 | 1020.4 |
| 20260502203505 | 0 | 1 | 0.0 | 3.2 | 0.00 | 0.00 | 0.00 | 84 | 1020.4 |
| 20260502203009 | 0 | 1 | 0.0 | 3.2 | 0.00 | 0.00 | 0.00 | 84 | 1020.3 |
| 20260502202505 | 0 | 1 | 0.0 | 3.2 | 0.00 | 0.00 | 0.00 | 87 | 1020.3 |
| 20260502201506 | 0 | 1 | 0.0 | 3.2 | 0.00 | 0.00 | 0.00 | 89 | 1020.0 |
| 20260502200505 | 0 | 1 | 0.0 | 3.2 | 0.00 | 0.00 | 0.00 | 89 | 1020.1 |
| 20260502194505 | 0 | 1 | 0.0 | 3.2 | 0.00 | 0.00 | 0.00 | 87 | 1019.7 |
| 20260502194008 | 0 | 0 | 0.0 | 0.0 | 0.00 | 0.00 | 0.00 | 86 | 1019.7 |
| 20260502193505 | 0 | 0 | 0.0 | 0.0 | 0.00 | 0.00 | 0.00 | 85 | 1019.7 |
| 20260502192009 | 1 | 0 | 0.0 | 0.0 | 0.00 | 0.00 | 0.00 | 86 | 1019.6 |
| 20260502191505 | 1 | 0 | 0.0 | 0.0 | 0.00 | 0.00 | 0.00 | 86 | 1019.4 |
| 20260502190505 | 1 | 1 | 0.0 | 3.2 | 0.00 | 0.00 | 0.00 | 85 | 1019.4 |
| 20260502190009 | 1 | 1 | 0.0 | 3.2 | 0.00 | 0.00 | 0.00 | 85 | 1019.3 |
| 20260502185506 | 1 | 0 | 0.0 | 0.0 | 0.00 | 0.00 | 0.00 | 83 | 1019.3 |
| 20260502184505 | 1 | 0 | 0.0 | 0.0 | 0.00 | 0.00 | 0.00 | 81 | 1019.1 |
| 20260502184008 | 2 | 292 | 0.0 | 3.2 | 0.00 | 0.00 | 0.00 | 80 | 1019.1 |
| 20260502183505 | 2 | 292 | 0.0 | 3.2 | 0.00 | 0.00 | 0.00 | 80 | 1019.0 |
| 20260502182010 | 2 | 292 | 0.0 | 3.2 | 0.00 | 0.00 | 0.00 | 80 | 1019.1 |
| 20260502180506 | 3 | 0 | 0.0 | 0.0 | 0.00 | 0.00 | 0.00 | 79 | 1018.8 |
| 20260502164009 | 5 | 270 | 0.0 | 3.2 | 0.00 | 0.00 | 0.00 | 70 | 1017.7 |
| 20260502163505 | 5 | 270 | 0.0 | 3.2 | 0.00 | 0.00 | 0.00 | 69 | 1017.7 |
| 20260502163009 | 6 | 270 | 0.0 | 3.2 | 0.00 | 0.00 | 0.00 | 69 | 1017.7 |
| 20260502161506 | 6 | 0 | 0.0 | 0.0 | 0.00 | 0.00 | 0.00 | 68 | 1017.6 |
| 20260502160506 | 6 | 270 | 0.0 | 3.2 | 0.00 | 0.03 | 0.00 | 68 | 1017.3 |
| 20260502152009 | 8 | 254 | 1.6 | 3.2 | 0.00 | 0.15 | 0.00 | 62 | 1016.7 |
| 20260502150506 | 9 | 279 | 4.8 | 9.7 | 0.00 | 0.18 | 0.00 | 60 | 1016.7 |
| 20260502130505 | 10 | 268 | 11.3 | 22.5 | 0.00 | 0.33 | 0.00 | 55 | 1016.3 |
| 20260502123505 | 11 | 238 | 6.4 | 12.9 | 0.00 | 0.36 | 0.00 | 58 | 1016.2 |
| 20260502123009 | 11 | 245 | 4.8 | 11.3 | 0.00 | 0.38 | 0.00 | 57 | 1016.2 |
| 20260502122505 | 11 | 242 | 4.8 | 14.5 | 0.00 | 0.38 | 0.00 | 59 | 1016.1 |
| 20260502122008 | 11 | 244 | 6.4 | 17.7 | 0.00 | 0.38 | 0.00 | 57 | 1016.1 |
| 20260502121505 | 11 | 249 | 6.4 | 17.7 | 0.00 | 0.38 | 0.00 | 57 | 1016.3 |
| 20260502121008 | 11 | 265 | 6.4 | 14.5 | 0.00 | 0.43 | 0.00 | 58 | 1016.2 |
| 20260502120505 | 11 | 274 | 8.0 | 17.7 | 0.00 | 0.43 | 0.00 | 59 | 1016.2 |
| 20260502115505 | 10 | 288 | 9.7 | 20.9 | 0.00 | 0.46 | 0.00 | 59 | 1016.3 |
| 20260502115009 | 9 | 292 | 12.9 | 33.8 | 0.00 | 0.46 | 0.00 | 59 | 1016.3 |
| 20260502114505 | 9 | 285 | 17.7 | 40.2 | 0.00 | 0.51 | 0.00 | 60 | 1016.2 |
| 20260502114009 | 10 | 277 | 16.1 | 40.2 | 0.00 | 0.51 | 0.00 | 58 | 1015.9 |
| 20260502113505 | 11 | 279 | 11.3 | 22.5 | 0.00 | 0.53 | 0.00 | 56 | 1015.7 |
| 20260502113008 | 11 | 285 | 11.3 | 20.9 | 0.00 | 0.53 | 0.00 | 55 | 1015.5 |
| 20260502112506 | 11 | 275 | 9.7 | 17.7 | 0.00 | 0.56 | 0.00 | 55 | 1015.6 |
| 20260502112008 | 11 | 272 | 8.0 | 20.9 | 0.00 | 0.61 | 0.00 | 55 | 1015.6 |
| 20260502111506 | 11 | 282 | 8.0 | 20.9 | 0.00 | 0.61 | 0.00 | 54 | 1015.6 |
| 20260502111008 | 11 | 295 | 8.0 | 22.5 | 0.00 | 0.64 | 0.00 | 54 | 1015.6 |
| 20260502110506 | 11 | 297 | 9.7 | 22.5 | 0.00 | 0.64 | 0.00 | 54 | 1015.5 |
| 20260502110008 | 11 | 283 | 9.7 | 17.7 | 0.00 | 0.66 | 0.00 | 53 | 1015.6 |
| 20260502105505 | 12 | 271 | 9.7 | 22.5 | 0.00 | 0.66 | 0.00 | 54 | 1015.6 |
| 20260502105009 | 12 | 258 | 11.3 | 22.5 | 0.00 | 0.69 | 0.00 | 52 | 1015.5 |
| 20260502104505 | 12 | 273 | 9.7 | 17.7 | 0.00 | 0.69 | 0.00 | 53 | 1015.6 |
| 20260502104009 | 12 | 301 | 9.7 | 24.1 | 0.00 | 0.71 | 0.00 | 55 | 1015.5 |
| 20260502103505 | 12 | 302 | 9.7 | 24.1 | 0.00 | 0.76 | 0.00 | 53 | 1015.5 |
| 20260502103008 | 12 | 295 | 11.3 | 24.1 | 0.00 | 0.79 | 0.00 | 51 | 1015.4 |
| 20260502102505 | 11 | 286 | 11.3 | 20.9 | 0.00 | 0.79 | 0.00 | 51 | 1015.4 |
| 20260502102009 | 11 | 281 | 9.7 | 20.9 | 0.00 | 0.81 | 0.00 | 50 | 1015.4 |
| 20260502101505 | 11 | 281 | 11.3 | 22.5 | 0.00 | 0.84 | 0.00 | 54 | 1015.3 |
| 20260502101009 | 11 | 294 | 11.3 | 22.5 | 0.00 | 0.84 | 0.00 | 52 | 1015.3 |
| 20260502100505 | 11 | 300 | 8.0 | 20.9 | 0.00 | 0.86 | 0.00 | 54 | 1015.3 |
| 20260502091505 | 10 | 272 | 9.7 | 17.7 | 0.00 | 1.02 | 0.00 | 60 | 1015.2 |
| 20260502091009 | 11 | 284 | 11.3 | 24.1 | 0.00 | 1.04 | 0.00 | 61 | 1015.3 |
| 20260502090505 | 11 | 286 | 11.3 | 24.1 | 0.00 | 1.04 | 0.00 | 62 | 1015.3 |
| 20260502071505 | 10 | 266 | 6.4 | 17.7 | 0.00 | 1.45 | 0.00 | 66 | 1014.9 |
| 20260502071009 | 10 | 261 | 6.4 | 12.9 | 0.00 | 1.47 | 0.00 | 65 | 1014.9 |
| 20260502070505 | 10 | 256 | 4.8 | 12.9 | 0.00 | 1.47 | 0.00 | 64 | 1014.9 |
| 20260502070008 | 8 | 293 | 4.8 | 11.3 | 0.00 | 1.50 | 0.00 | 64 | 1014.9 |
| 20260502065505 | 8 | 294 | 6.4 | 12.9 | 0.00 | 1.50 | 0.00 | 66 | 1015.0 |
| 20260502065009 | 8 | 284 | 6.4 | 14.5 | 0.00 | 1.50 | 0.00 | 67 | 1015.0 |
| 20260502064506 | 8 | 291 | 6.4 | 14.5 | 0.00 | 1.52 | 0.00 | 67 | 1015.0 |
| 20260502064009 | 8 | 290 | 6.4 | 17.7 | 0.00 | 1.55 | 0.00 | 69 | 1014.8 |
| 20260502063505 | 8 | 296 | 6.4 | 17.7 | 0.00 | 1.60 | 0.00 | 67 | 1014.8 |
| 20260502063008 | 8 | 291 | 6.4 | 17.7 | 0.00 | 1.60 | 0.00 | 64 | 1014.8 |
| 20260502062505 | 9 | 314 | 4.8 | 17.7 | 0.00 | 1.63 | 0.00 | 64 | 1014.8 |